Weather History for Kayseri, Turkey

Change the Weather History Date:

Sunday, October 20, 2013

  Actual Average Record
Temperature  
Mean Temperature 43 °F -  
Max Temperature 53 °F 57 °F 75 °F (2002)
Min Temperature 33 °F 32 °F 23 °F (2011)
Degree Days  
Heating Degree Days 22    
Moisture  
Dew Point 33 °F    
Average Humidity 67    
Maximum Humidity 87    
Minimum Humidity 27    
Precipitation  
Precipitation 0.00 in - - ()
Sea Level Pressure  
Sea Level Pressure 30.40 in    
Wind  
Wind Speed 3 mph ()    
Max Wind Speed 7 mph    
Max Gust Speed -    
Visibility 6.7 miles    
Events      
Averages and records for this station are not official NWS values.
T = Trace of Precipitation, MM = Missing Value Source: Averaged Metar Reports

Daily Weather History Graph

Daily Weather History Graph

Search for Another Location

Airport:

Trip Planner

Search our weather history database for the weather conditions in past years. The results will help you decide how hot, cold, wet, or windy it might be!

Date:

Astronomy

Oct. 20, 2013 Rise Set
Actual Time 6:52 AM EEST 5:52 PM EEST
Civil Twilight 6:25 AM EEST 6:19 PM EEST
Nautical Twilight 5:54 AM EEST 6:50 PM EEST
Astronomical Twilight 5:23 AM EEST 7:21 PM EEST
Moon 6:47 PM EEST (10/20) 8:08 AM EEST (10/20)
Length of Visible Light 11h 54m
Length of Day
11h 00m
Full, 98% of the Moon is Illuminated
Oct 20
Full
Oct 27
Last Quarter
Nov 3
New
Nov 10
First Quarter
Nov 17
Full

Hourly Weather History & Observations

Time (EEST) Temp. Windchill Dew Point Humidity Pressure Visibility Wind Dir Wind Speed Gust Speed Precip Events Conditions
12:20 AM 44.6 °F 42.2 °F 37.4 °F 76% 30.33 in 6.2 mi SW 4.6 mph - N/A   Mostly Cloudy
12:50 AM 42.8 °F - 37.4 °F 81% 30.33 in 6.2 mi SSE 1.2 mph - N/A   Mostly Cloudy
1:20 AM 44.6 °F 41.4 °F 37.4 °F 76% 30.33 in 6.2 mi SW 5.8 mph - N/A   Mostly Cloudy
1:50 AM 44.6 °F 40.7 °F 37.4 °F 76% 30.33 in 6.2 mi West 6.9 mph - N/A   Mostly Cloudy
2:20 AM 41.0 °F 38.0 °F 35.6 °F 81% 30.33 in 6.2 mi WSW 4.6 mph - N/A   Scattered Clouds
2:50 AM 41.0 °F 38.0 °F 35.6 °F 81% 30.33 in 6.2 mi WSW 4.6 mph - N/A   Scattered Clouds
3:00 AM 40 °F - 36 °F 82%  in 12 mi WSW 4.6 mph - -   Partly Cloudy
3:20 AM 41.0 °F 38.0 °F 37.4 °F 87% 30.33 in 6.2 mi WSW 4.6 mph - N/A   Scattered Clouds
3:50 AM 41.0 °F 37.1 °F 35.6 °F 81% 30.36 in 6.2 mi West 5.8 mph - N/A   Scattered Clouds
4:20 AM 39.2 °F 35.9 °F 35.6 °F 87% 30.36 in 6.2 mi WSW 4.6 mph - N/A   Scattered Clouds
4:50 AM 37.4 °F 33.8 °F 33.8 °F 87% 30.36 in 6.2 mi WSW 4.6 mph - N/A   Scattered Clouds
5:20 AM 39.2 °F - 35.6 °F 87% 30.36 in 6.2 mi SSW 2.3 mph - N/A   Scattered Clouds
5:50 AM 39.2 °F 35.9 °F 33.8 °F 81% 30.36 in 6.2 mi SW 4.6 mph - N/A   Scattered Clouds
6:20 AM 39.2 °F 37.0 °F 33.8 °F 81% 30.36 in 6.2 mi SW 3.5 mph - N/A   Scattered Clouds
6:50 AM 37.4 °F - 33.8 °F 87% 30.39 in 6.2 mi Calm Calm - N/A   Scattered Clouds
7:20 AM 37.4 °F - 33.8 °F 87% 30.39 in 6.2 mi WSW 1.2 mph - N/A   Scattered Clouds
7:50 AM 39.2 °F 35.9 °F 35.6 °F 87% 30.39 in 6.2 mi West 4.6 mph - N/A   Scattered Clouds
8:20 AM 41.0 °F 37.1 °F 35.6 °F 81% 30.39 in 6.2 mi West 5.8 mph - N/A   Scattered Clouds
8:50 AM 44.6 °F 41.4 °F 37.4 °F 76% 30.42 in 6.2 mi West 5.8 mph - N/A   Scattered Clouds
9:00 AM 44 °F - 37 °F 68%  in 12 mi West 5.8 mph - -   Partly Cloudy
9:20 AM 46.4 °F 44.3 °F 37.4 °F 71% 30.42 in 6.2 mi WSW 4.6 mph - N/A   Scattered Clouds
9:50 AM 46.4 °F - 35.6 °F 66% 30.42 in 6.2 mi Variable 1.2 mph - N/A   Scattered Clouds
10:20 AM 48.2 °F - 35.6 °F 62% 30.42 in 6.2 mi Variable 1.2 mph - N/A   Scattered Clouds
10:50 AM 48.2 °F - 33.8 °F 58% 30.42 in 6.2 mi WNW 3.5 mph - N/A   Scattered Clouds
11:20 AM 48.2 °F - 33.8 °F 58% 30.42 in 6.2 mi NNW 4.6 mph - N/A   Mostly Cloudy
11:50 AM 48.2 °F - 33.8 °F 58% 30.42 in 6.2 mi Variable 3.5 mph - N/A   Mostly Cloudy
12:20 PM 48.2 °F - 32.0 °F 54% 30.42 in 6.2 mi NW 4.6 mph - N/A   Mostly Cloudy
12:50 PM 50.0 °F - 30.2 °F 47% 30.42 in 6.2 mi Variable 2.3 mph - N/A   Mostly Cloudy
1:20 PM 50.0 °F - 30.2 °F 47% 30.39 in 6.2 mi North 6.9 mph - N/A   Mostly Cloudy
1:50 PM 50.0 °F - 30.2 °F 47% 30.39 in 6.2 mi WNW 6.9 mph - N/A   Mostly Cloudy
2:20 PM 51.8 °F - 26.6 °F 38% 30.39 in 6.2 mi Variable 2.3 mph - N/A   Mostly Cloudy
2:50 PM 50.0 °F - 26.6 °F 40% 30.39 in 6.2 mi NNE 3.5 mph - N/A   Mostly Cloudy
3:00 PM 51 °F - 27 °F 27%  in 12 mi North 3.5 mph - -   Partly Cloudy
3:20 PM 51.8 °F - 26.6 °F 38% 30.39 in 6.2 mi NNW 4.6 mph - N/A   Mostly Cloudy
3:50 PM 50.0 °F - 26.6 °F 40% 30.39 in 6.2 mi North 4.6 mph - N/A   Mostly Cloudy
4:20 PM 51.8 °F - 28.4 °F 41% 30.39 in 6.2 mi NW 3.5 mph - N/A   Mostly Cloudy
4:50 PM 50.0 °F - 26.6 °F 40% 30.39 in 6.2 mi NNW 4.6 mph - N/A   Scattered Clouds
5:20 PM 48.2 °F - 30.2 °F 50% 30.39 in 6.2 mi West 4.6 mph - N/A   Scattered Clouds
5:50 PM 48.2 °F - 32.0 °F 54% 30.42 in 6.2 mi WNW 4.6 mph - N/A   Scattered Clouds
6:20 PM 46.4 °F 45.2 °F 30.2 °F 53% 30.42 in 6.2 mi WNW 3.5 mph - N/A   Scattered Clouds
6:50 PM 42.8 °F - 32.0 °F 66% 30.42 in 6.2 mi Calm Calm - N/A   Scattered Clouds
7:20 PM 42.8 °F - 30.2 °F 61% 30.42 in 6.2 mi Calm Calm - N/A   Partly Cloudy
7:50 PM 41.0 °F - 32.0 °F 70% 30.42 in 6.2 mi Calm Calm - N/A   Partly Cloudy
8:20 PM 41.0 °F - 32.0 °F 70% 30.42 in - Calm Calm - N/A   Clear
8:50 PM 39.2 °F - 30.2 °F 70% 30.45 in - Calm Calm - N/A   Clear
9:00 PM 39 °F - 31 °F 63%  in 12 mi Calm Calm - -   Scattered Clouds
9:20 PM 37.4 °F - 30.2 °F 75% 30.45 in - Calm Calm - N/A   Clear
9:50 PM 37.4 °F - 32.0 °F 81% 30.45 in - Calm Calm - N/A   Clear
10:20 PM 37.4 °F - 30.2 °F 75% 30.45 in - Variable 2.3 mph - N/A   Clear
10:50 PM 35.6 °F 31.7 °F 30.2 °F 81% 30.45 in - NNE 4.6 mph - N/A   Clear
11:20 PM 33.8 °F 29.6 °F 28.4 °F 81% 30.45 in - NNE 4.6 mph - N/A   Clear
11:50 PM 33.8 °F 29.6 °F 28.4 °F 81% 30.45 in - NE 4.6 mph - N/A   Clear